Location: Camaret
(48.2753°N, 4.5961°W)
Time: 01:16:24
(UTC+00:00)

Cosmos 2219 - Pass Details

Date: 29 October 2020
Orbit: 832 x 862 km, 71.1° (Epoch: 26 November)

Event Time Altitude Azimuth Distance (km) Brightness Sun altitude
Rises 18:02:36 0° 331° (NNW) 3,447 6.7 -10.3°
Reaches altitude 10° 18:05:04 10° 330° (NNW) 2,508 5.9 -10.7°
Maximum altitude 18:10:50 80° 245° (WSW) 880 3.4 -11.7°
Drops below altitude 10° 18:16:35 10° 159° (SSE) 2,492 5.5 -12.6°
Sets 18:19:01 0° 158° (SSE) 3,423 6.2 -13.0°
